[Iaude] MPEC T94: 2015 VP66 [a=0.96,e=0.26,i=19.0,H=22.3]

mpec at si.edu mpec at si.edu
Sun Oct 9 10:03:44 EDT 2016


M.P.E.C. 2016-T94                                Issued 2016 Oct.  9, 13:59 UT
 
     The Minor Planet Electronic Circulars contain information on unusual
         minor planets and routine data on comets.  They are published
    on behalf of Division F of the International Astronomical Union by the
          Minor Planet Center, Smithsonian Astrophysical Observatory,
                          Cambridge, MA 02138, U.S.A.

             Prepared using the Tamkin Foundation Computer Network

                              MPC at CFA.HARVARD.EDU
            URL http://www.minorplanetcenter.net/    ISSN 1523-6714


                                   2015 VP66
 
                          Revision to MPEC 2015-V131
 
Additional Observations:
     K15V66P  C2016 10 06.44646 04 42 08.62 +26 59 51.6          22.4 RoET094926
     K15V66P  C2016 10 06.46777 04 42 08.60 +27 01 00.0          22.3 RoET094926
     K15V66P  C2016 10 08.44469 04 42 18.11 +28 51 04.9          22.9 RoET094926
     K15V66P  C2016 10 08.46833 04 42 17.88 +28 52 25.7          22.3 RoET094926
     K15V66P  C2016 10 09.46449 04 42 14.88 +29 50 44.7          22.1 RoET094926
     K15V66P  C2016 10 09.47631 04 42 14.71 +29 51 26.3          22.2 RoET094926
     K15V66P  C2016 10 09.48811 04 42 14.50 +29 52 08.9          22.0 RoET094926
 
Observer details:
926 Tenagra II Observatory.  Observers M. Schwartz, P. R. Holvorcem.  Measurer
    M. Schwartz.  0.81-m f/7 Ritchey-Chretien + CCD.
 
First and last observations above in comparison with prediction:
Residuals in seconds of arc (or two decimals in degrees), reference and Delta-T
161006 926 0.06- 0.02-    161009 926 0.07- 0.02-    MPO361300   +0.0091 day
 
Orbital elements:
2015 VP66                                                Earth MOID = 0.1939 AU
Epoch 2016 July 31.0 TT = JDT 2457600.5                 MPC
M 133.70902              (2000.0)            P               Q
n   1.04837164     Peri.  168.83180     -0.97495483     +0.18283360
a   0.9596787      Node    22.91568     -0.22075157     -0.72628636
e   0.2578345      Incl.   18.97834     -0.02705222     -0.66263112
P   0.94           H   22.3           G   0.15           U   4
Residuals in seconds of arc
151109 G96  0.0   0.4+    151110 G96  0.3-  0.8-    151116 H21  0.1-  0.6-
151109 G96  0.0   0.2+    151110 G96  0.7+  0.1+    151116 H21  0.0   0.0
151109 G96  0.5-  0.8-    151110 G96  0.0   0.5+    151116 H21  0.1+  0.2-
151109 G96  0.3+  0.1+    151111 291  0.0   0.1-    151201 695  0.1+  0.1+
151109 G96  0.3-  0.1-    151111 291  0.3-  0.2-    151201 695  0.1-  0.0
151109 291  0.1-  0.1+    151111 291  0.7+  0.4-    151201 695  0.2+  0.4-
151109 291  0.3+  0.3+    151112 G96  0.3-  0.3-    161006 926  0.5+  1.0+
151109 G96  0.2-  0.1+    151112 G96  0.1-  0.5-    161006 926  0.8+  0.5+
151109 291  0.2-  0.1+    151112 G96  0.7+  0.3-    161008 926  0.2+  0.0
151109 G96  0.5+  0.6-    151114 H21  0.5-  0.7+    161008 926  0.9+  0.8-
151109 G96  0.1-  0.2+    151114 H21  0.3-  0.9+    161009 926  1.1-  0.1-
151110 291  0.0   0.1+    151114 H21  0.6-  0.5+    161009 926  0.6-  0.6-
151110 291  0.1+  0.1+    151115 H21  0.3-  0.4+    161009 926  0.6-  0.0
151110 291  0.0   0.2+    151115 H21  0.2-  0.1+
151110 G96  0.0   0.0     151115 H21  0.3-  0.1+

Ephemeris:
2015 VP66                a,e,i = 0.96, 0.26, 19                  q = 0.7122
Date    TT    R. A. (2000) Decl.     Delta      r     Elong.  Phase     V
2016 09 09    04 19 49.1 +10 21 00   0.4946  1.2067   101.4    54.9    23.2
...
2016 09 24    04 35 32.3 +17 48 19   0.3955  1.2040   111.2    51.0    22.6
...
2016 10 02    04 40 45.4 +23 17 09   0.3444  1.1978   117.1    48.0    22.2
...
2016 10 08    04 42 17.5 +28 25 40   0.3085  1.1910   121.8    45.5    21.9
2016 10 09    04 42 17.1 +29 23 18   0.3028  1.1897   122.6    45.0    21.8
2016 10 10    04 42 11.3 +30 22 51   0.2972  1.1883   123.4    44.6    21.7
...
2016 10 16    04 39 20.7 +37 03 30   0.2662  1.1790   127.8    41.9    21.4
...
2016 10 24    04 26 07.9 +47 57 22   0.2334  1.1637   132.0    39.5    21.0
...
2016 11 08    02 31 54.6 +70 10 03   0.2080  1.1264   126.3    45.1    20.9

A. U. Tomatic                (C) Copyright 2016 MPC           M.P.E.C. 2016-T94




More information about the Iaude mailing list